Vorticity
13 11 12 14 15 19 21 25 28 30 25 16 12 16 25 17 21 30 28 17 13 9
1 5 4 3 4 4 3 2 4 3 8 14 24 28 24 11 20 12 27 35 36 25
-2 5 0 0 2 4 3 4 5 5 9 8 5 6 11 16 21 13 8 16 27 32
2 5 3 2 3 11 8 5 9 5 2 7 5 6 6 10 17 17 13 6 16 28
1 5 -1 5 5 1 2 -2 -6 0 3 6 3 4 9 5 12 20 15 11 7 20
1 3 4 7 7 7 7 6 3 -0 1 7 6 6 10 8 3 12 14 15 8 12
2 4 7 9 6 8 1 4 4 4 2 7 5 8 6 10 6 7 15 13 17 9
3 4 -0 -2 2 5 5 5 5 6 7 10 13 4 10 12 9 14 20 19 16 13
4 3 0 -0 1 -1 6 -1 6 8 8 11 10 4 15 15 15 30 19 12 15 15
6 4 1 3 2 2 2 4 8 9 12 7 9 13 12 11 24 30 11 11 14 13
4 2 -0 2 2 5 7 13 10 11 9 10 12 13 19 26 24 13 13 21 16 14
4 4 5 5 7 9 10 12 13 6 10 14 16 22 23 19 14 19 21 15 12 12
5 5 7 7 11 11 10 7 10 11 25 23 23 20 15 17 18 13 19 13 12 11
5 7 6 5 7 7 8 9 15 25 25 21 -0 18 13 20 8 15 21 12 9 9
Height
5772 5769 5767 5764 5760 5757 5754 5752 5749 5746 5742 5739 5735 5731 5728 5726 5723 5723 5725 5726 5728 5731
5769 5766 5762 5759 5755 5752 5749 5746 5742 5739 5735 5730 5725 5721 5716 5713 5709 5706 5705 5704 5706 5709
5763 5760 5756 5753 5749 5745 5742 5738 5733 5729 5726 5722 5717 5712 5706 5701 5697 5694 5691 5688 5686 5686
5756 5753 5749 5745 5741 5737 5732 5729 5724 5720 5715 5712 5707 5701 5696 5690 5685 5681 5677 5674 5672 5670
5747 5743 5739 5735 5731 5727 5723 5718 5713 5708 5703 5699 5694 5689 5684 5677 5672 5668 5664 5660 5657 5656
5738 5733 5729 5725 5720 5715 5711 5705 5701 5695 5690 5686 5681 5675 5669 5664 5659 5653 5650 5647 5644 5641
5728 5723 5717 5712 5707 5703 5698 5692 5686 5681 5676 5670 5664 5661 5655 5649 5643 5638 5633 5632 5629 5627
5715 5711 5705 5698 5691 5686 5681 5676 5671 5665 5658 5652 5647 5642 5636 5630 5625 5620 5617 5614 5613 5610
5702 5696 5690 5684 5678 5671 5662 5654 5651 5646 5640 5633 5627 5622 5616 5611 5606 5603 5600 5597 5594 5594
5686 5680 5674 5667 5661 5655 5647 5637 5630 5624 5618 5612 5607 5600 5595 5592 5587 5585 5582 5580 5578 5577
5668 5662 5655 5649 5642 5635 5627 5620 5612 5602 5597 5590 5585 5580 5575 5572 5569 5566 5563 5563 5562 5561
5650 5643 5636 5630 5621 5613 5605 5598 5590 5583 5575 5568 5564 5559 5557 5555 5553 5550 5547 5546 5547 5547
5633 5624 5616 5608 5600 5591 5581 5574 5566 5559 5553 5546 5543 5541 5539 5537 5536 5535 5534 5532 5532 5533
5613 5603 5594 5586 5576 5567 5558 5549 5541 5535 5533 5531 5525 5523 5521 5520 5520 5520 5519 5519 5519 5519